Weather Roundup
Issued by NWS Springfield, MO

Home | Current Version | Previous Version | Text Only | Print | Product List | Glossary On
Versions: 1 2 3 4 5 6 7 8 9 10 11 12 13 14 15 16 17 18 19 20 21 22 23 24 25 26 27 28 29 30 31 32 33 34 35 36 37 38 39 40 41 42 43 44 45 46 47 48 49 50
000
NZUS99 KSGF 302057
HRRSGF

HOURLY WEATHER
NATIONAL WEATHER SERVICE SPRINGFIELD MO
400 PM CDT SUN APR 30 2017

......SGF CWA......

CITY           SKY/WX    TMP DP  RH WIND       PRES   REMARKS
SPRINGFIELD    PTSUNNY   62  47  57 SW25G37   29.52S
JOPLIN         MOSUNNY   57  39  51 S32G47    29.55S
WEST PLAINS    PTSUNNY   67  55  65 SW16G32   29.58R
ROLLA          CLOUDY    72  61  68 S22G28    29.46F
BRANSON        MOSUNNY   63  46  55 S15G22    29.58S

......SURROUNDING SGF CWA......

CITY           SKY/WX    TMP DP  RH WIND       PRES   REMARKS
CHANUTE        PTSUNNY   52  41  66 S23G33    29.49F
PARSONS        CLOUDY    50  42  74 S17G24    29.52S
COFFEYVILLE    LGT RAIN  49  43  80 S18G31    29.51F
EMPORIA        PTSUNNY   51  44  77 S18       29.44F
HARRISON AR    MOSUNNY   63  44  50 S13G32    29.59S

......KANSAS AND MISSOURI......

CITY           SKY/WX    TMP DP  RH WIND       PRES   REMARKS
KANSAS CTY INT PTSUNNY   58  47  66 S15       29.46F
SEDALIA        CLOUDY    64  57  78 W16G22    29.48F
ST JOSEPH      CLOUDY    56  54  93 SE5       29.47F
ST LOUIS       CLOUDY    71  65  81 SE23G29   29.54F
WICHITA        CLOUDY    45  40  82 S9        29.43F
TOPEKA         CLOUDY    52  45  77 S20G30    29.47R
OLATHE         CLOUDY    54  46  74 S15G25    29.48S

......TENNESSEE......

CITY           SKY/WX    TMP DP  RH WIND       PRES   REMARKS
MEMPHIS        NOT AVBL
NASHVILLE      LGT RAIN  67  63  87 S17G33    29.85F

......ARKANSAS.......

CITY           SKY/WX    TMP DP  RH WIND       PRES   REMARKS
FAYETTEVILLE   CLOUDY    53  38  56 SW25G39   29.62F
FT SMITH       CLOUDY    59  38  45 SW14G25   29.66F
LITTLE ROCK    CLOUDY    64  55  72 SW18G25   29.71F

......OKLAHOMA.......

CITY           SKY/WX    TMP DP  RH WIND       PRES   REMARKS
TULSA          CLOUDY    54  38  54 S20G26    29.52F
PONCA CITY     LGT RAIN  46  39  76 SW15      29.46S
MCALESTER      LGT RAIN  58  36  43 SW23G41   29.64S
OKLAHOMA CITY  CLOUDY    53  37  54 W25G36    29.56S

......IOWA............

CITY           SKY/WX    TMP DP  RH WIND       PRES   REMARKS
DES MOINES     NOT AVBL
QUAD CITIES    CLOUDY    48  45  89 NE20      29.66F FOG

......ILLINOIS........

CITY           SKY/WX    TMP DP  RH WIND       PRES   REMARKS
QUINCY         NOT AVBL
CHICAGO        DRIZZLE   45  42  89 NE18      29.78F



USA.gov is the U.S. government's official web portal to all federal, state and local government web resources and services.